Regional Weather Roundup
Issued by NWS

Home | Current Version | Previous Version | Graphics & Text | Print | Product List | Glossary On
Versions: 1 2 3 4 5 6 7 8 9 10 11 12 13 14 15 16 17 18 19 20 21 22 23 24 25 26 27 28 29 30 31 32 33 34 35 36 37 38 39 40 41 42 43 44 45 46 47 48 49 50
000
ASUS43 KFSD 230602
RWRSD

WEATHER ROUNDUP FOR SOUTH DAKOTA
NATIONAL WEATHER SERVICE SIOUX FALLS SD
100 AM CDT TUE SEP 23 2014

NOTE: "FAIR" INDICATES FEW OR NO CLOUDS BELOW 12,000 FEET WITH NO
SIGNIFICANT WEATHER AND/OR OBSTRUCTIONS TO VISIBILITY.


SDZ001>005-009-010-012>017-230700-
NORTHWEST AND NORTH CENTRAL SOUTH DAKOTA

CITY           SKY/WX    TMP DP  RH WIND       PRES   REMARKS
FAITH            N/A     63  55  75 S15       29.90S
MOBRIDGE       CLEAR     64  55  72 S15       29.92F
$$

SDZ012>016-024>037-041>051-057-063-072>074-230700-
SOUTHWEST AND SOUTH CENTRAL SOUTH DAKOTA

CITY           SKY/WX    TMP DP  RH WIND       PRES   REMARKS
RAPID CTY ARPT MOCLDY    60  55  83 S6        29.93F
PIERRE         CLOUDY    62  55  77 SE18G26   29.97S
CUSTER         PTCLDY    54  48  80 SW5       30.04F
ELLSWORTH AFB  MOCLDY    62  56  80 S6        29.92F
PHILIP         LGT RAIN  60  55  83 S15G26    29.93F
PINE RIDGE     PTCLDY    61  51  70 S15G24    29.97F
WINNER         CLOUDY    62  55  77 S13       30.04R
$$

SDZ004>011-016>023-039-040-230700-
NORTHEAST SOUTH DAKOTA

CITY           SKY/WX    TMP DP  RH WIND       PRES   REMARKS
ABERDEEN       CLEAR     61  50  67 S13       30.02F
WATERTOWN      CLEAR     54  49  83 S8        30.08F
SISSETON         N/A     52  49  89 SE7       30.05F
$$

SDZ017-020-022-023-036>040-048>070-230700-
SOUTHEAST SOUTH DAKOTA

CITY           SKY/WX    TMP DP  RH WIND       PRES   REMARKS
SIOUX FALLS    PTCLDY    62  49  62 S12       30.13F
HURON          MOCLDY    62  50  64 SE9G17    30.05F
CHAMBERLAIN    CLOUDY    64  54  71 S13       30.04S
MITCHELL       CLOUDY    64  52  64 S13       30.08F
YANKTON        CLOUDY    61  48  63 SE6       30.12F
$$

ABBREVIATIONS USED IN REMARKS
   TC - TEMPERATURE IN CELSIUS
  WCI - WIND CHILL INDEX
   HX - HEAT INDEX
  VSB - VISIBILITY



USA.gov is the U.S. government's official web portal to all federal, state and local government web resources and services.